Regional Weather Roundup
Issued by NWS

Home | Current Version | Previous Version | Graphics & Text | Print | Product List | Glossary On
Versions: 1 2 3 4 5 6 7 8 9 10 11 12 13 14 15 16 17 18 19 20 21 22 23 24 25 26 27
000
ASUS45 KBOI 110210
RWRID

IDAHO REGIONAL WEATHER ROUNDUP
NATIONAL WEATHER SERVICE BOISE ID
700 PM MST SUN DEC 10 2017

NOTE: "FAIR" INDICATES FEW OR NO CLOUDS BELOW 12000 FEET
WITH NO SIGNIFICANT WEATHER AND/OR OBSTRUCTIONS TO VISIBILITY

IDZ012-014-110300-
SOUTHWEST IDAHO


CITY           SKY/WX    TMP DP  RH WIND       PRES   REMARKS
BOISE          CLOUDY    26  20  77 SE3       30.65F
CALDWELL       CLOUDY    28  22  78 CALM      30.69F
MOUNTAIN HOME  CLOUDY    23  23 100 CALM      30.65F
$$

IDZ016-017-110300-
SOUTHCENTRAL IDAHO


CITY           SKY/WX    TMP DP  RH WIND       PRES   REMARKS
BURLEY         CLEAR     23  20  88 CALM      30.56F
JEROME         CLEAR     19  17  92 NW3       30.59S
TWIN FALLS     CLEAR     16  14  92 SW5       30.56F FOG     WCI   9
$$

IDZ019>023-110300-
SOUTHEAST IDAHO


CITY           SKY/WX    TMP DP  RH WIND       PRES   REMARKS
IDAHO FALLS    CLOUDY    15  14  95 CALM      30.58F
POCATELLO      CLOUDY    17  12  80 CALM      30.58S
REXBURG        CLOUDY    21  16  81 E3        30.57F
$$

IDZ006-010-011-018-031-032-110300-
CENTRAL IDAHO MOUNTAINS


CITY           SKY/WX    TMP DP  RH WIND       PRES   REMARKS
MCCALL         CLEAR     17  14  88 CALM      30.52S
HAILEY         CLEAR     28  19  69 NW7       30.56R WCI  21
STANLEY          N/A     10   7  87 CALM      30.58S
SALMON         CLOUDY    17  13  84 CALM      30.71S
CHALLIS        CLEAR     18  11  74 CALM      30.61S
$$

IDZ002-004-006-007-026-110300-
NORTHERN IDAHO


CITY           SKY/WX    TMP DP  RH WIND       PRES   REMARKS
LEWISTON       CLEAR     28  24  85 SW5       30.63R WCI  23
LOWELL           N/A     27  26  96 CALM      30.63R
COEUR D`ALENE  CLOUDY    28  24  85 N8        30.60S WCI  20
MULLAN PASS    CLEAR     39  32  76 SW3       30.48R
$$




USA.gov is the U.S. government's official web portal to all federal, state and local government web resources and services.